Showing default

HAWK-10C, 60575

Orbit data source: Space-Track

HAWK-10C, 60575 is a payload satellite owned by HawkEye 360 (US) in SSO that was launched on Fri, 16 Aug 2024 UTC via an FALCON 9 launch vehicle from the Air Force Western Test Range (AFWTR). Payload-class satellites include a variety of spacecraft equipped with specific instruments for various scientific and technological missions. These include communications satellites like Starlink; space stations such as the ISS; scientific satellites like the Hubble; Earth observation satellites from companies like Planet Labs, Umbra, and HawkEye 360; GPS; miniature CubeSats for education and research; and military/defense satellites.

Loading next visibility...
Identifier
60575, 2024-149DM
Orbit
SSO
Country
Flag of USUS
Related business
Manufacturer
UTIAS-SFL
Mission
Operational Commercial Sigint
Bus & Motor
HAWK2G, Unknown motor
Mass
31 kg wet, 30 kg dry
Launch date (UTC)
2024-08-16 (2 years ago)
Launch vehicle
FALCON 9
Launch site
Air Force Western Test Range (AFWTR)
Object type
Payload
Rocket body
Debris
Shape & HBR
Box + 2 Pan, 1.0 m
Radar Cross Section
0.240 m², Medium (>0.1 m² and < 1m²)

Expand to show TLE details & history
Last TLE update: 7 hours ago

TLE from 7 hours ago
0 HAWK-10C
1 60575U 24149DM  26126.77933948  .00001244  00000-0  11489-3 0  9997
2 60575  97.6743 202.1825 0003182 170.1598 189.9687 14.96389810 93791
Epoch: 2026-05-06T18:42Z
TLE epoch observation values (Epoch: 2026-05-06T18:42:14.931Z)
Latitude
0.00006°
Longitude
56.98535°
Altitude
583.293 km
Speed
7.568 km/s
True Right ascension
13h 28m 43s
True Declination
0° 00' 00"
Sunlit
Object was in full shadow at epoch
Visualization orbit readout
Latitude
Unknown
Longitude
Unknown
Altitude
Unknown
Speed
Unknown
Apparent Right ascension
Unknown
Apparent Declination
Unknown
Sunlit
N/A
Visualization observer readout
Local Sidereal Time
09:27:17
Azimuth
Unknown
Elevation
Unknown
Doppler factor
Unknown
Orbital elements
Apogee altitude
577.284 km
Perigee altitude
572.859 km
Semi-major axis
6,953.208 km
Eccentricity
0.00032
Inclination
97.6743°
RAAN
202.1825°
Arg. of periapsis
170.1598°
True anomaly
189.96239°
Mean anomaly
189.9687°
Eccentric anomaly
189.96554°
Mean motion
3.74339 °/min
Orbital period
96.17 mins
BSTAR
0.00011489
Loading maneuver chart data...
Computing Atmospheric mass density...
Loading historical data...
Loading historical data...
Loading historical data...
Loading historical data...
Loading historical data...
Loading historical data...
Loading historical data...

Documentation

Showing up to 5 results
|